Starlink 33726

operational
NORAD ID: 63437 Int'l Des: 2025-069 Owner: SPXS Country: US Constellation: starlink
LEOCIRCULAR

About Starlink 33726

Description loading...

Live Position

Loading 3D Globe...

Upcoming Passes

Altitude History

Altitude vs Time

uPlot chart will show altitude changes over time

Two-Line Element Set

1 63437U 25069E 26101.93726798 .00013897 00000-0 48044-3 0 9997
2 63437 53.1615 348.1501 0001317 93.5102 266.6050 15.30201665 58445
Epoch: Apr 11, 2026 • Age: 8 hours

Current Status

Altitude 480.5 km
Velocity 7.63 km/s
Sub-Earth Point 51.49°N, 115.51°E
Launch Date Apr 4, 2025
Age 1 years
Type internet

Technical Details

Classification Payload
Mass 575.00 kg
Dry Mass 530.00 kg
Total Mass 575.00 kg
Length 0.30 m
Diameter 4.10 m
Span 29.00 m
Shape Box + pan
Manufacturer SPXS
Bus Type Starlink V2MO
Phase Status In Orbit
Owner/State SPXS/US

Large Constellations

Loading constellations...